#timestamp,LO_Frequency,Hit,StdDev 
1514235615.6,286047002.4,N
1514235635.5,286047001.5,N
1514235655.3,286047000.9,N
1514235675.1,286047002.4,N
1514235695.9,286047002.3,N
1514235715.7,286047002.6,N
1514235735.6,286047002.7,N
1514235755.4,286047002.8,N
1514235775.2,286047002.4,N
1514235795.1,286046999.7,N
1514235796.0,286046999.7,N
1514235815.8,286046998.1,N
1514235835.7,286047002.5,N
1514235855.5,286046998.1,N
1514235875.3,286046996.5,N
1514235895.2,286047000.0,N
1514235915.0,286047000.5,N
1514235915.9,286047000.5,N
1514235935.8,286047000.7,N
1514235955.6,286047000.3,N
1514235975.4,286047000.9,N
1514235995.3,286046999.9,N
1514236015.1,286047000.6,N
1514236035.8,286047002.2,N
1514236055.7,286046999.8,N
1514236075.5,286047002.5,N
1514236095.4,286047000.1,N
1514236115.2,286047000.1,N
1514236135.0,286047000.2,N
1514236135.9,286047000.2,N
1514236155.8,286047000.3,N
1514236175.6,286047000.4,N
1514236195.5,286047001.1,N
1514236215.3,286046998.1,N
1514236235.1,286047001.5,N
1514236255.9,286047001.5,N
1514236275.7,286047005.2,Y
1514236295.6,286047005.7,P
1514236315.4,286047005.5,N
1514236335.2,286047007.4,P
1514236355.1,286047005.1,N
1514236356.0,286047005.1,N
1514236375.8,286047005.6,N
1514236395.6,286047003.8,N
1514236415.5,286047001.3,N
1514236435.3,286047004.1,N
1514236455.2,286047001.7,N
1514236475.9,286046998.6,N
1514236495.7,286046999.7,N
1514236515.6,286047002.7,N
1514236535.4,286047000.1,N
1514236555.3,286046998.1,N
1514236575.1,286047002.5,N
1514236576.0,286047002.5,N
1514236595.8,286047000.3,N
1514236615.7,286047002.0,N
1514236635.5,286047004.3,N
1514236655.3,286047001.7,N
1514236675.2,286047001.7,N
1514236695.0,286047002.5,N
1514236695.9,286047002.5,N
1514236715.8,286047002.6,N
1514236735.6,286047001.9,N
1514236755.4,286047001.6,N
1514236775.3,286047002.5,N
1514236795.1,286047002.6,N
1514236815.9,286047005.3,N
1514236835.7,286047004.9,N
1514236855.5,286047006.7,Y
1514236875.4,286047007.4,P
1514236895.2,286047004.7,N
1514236915.1,286047004.9,N
1514236916.0,286047004.9,N
1514236935.8,286047003.0,N
1514236955.6,286047002.6,N
1514236975.5,286047002.3,N
1514236995.3,286047000.5,N
1514237015.1,286047000.8,N
1514237035.9,286047000.3,N
1514237055.7,286047001.0,N
1514237075.6,286047000.5,N
1514237095.4,286047002.5,N
1514237115.2,286047000.7,N
1514237135.1,286047002.8,N
1514237136.0,286047002.8,N
1514237155.8,286047000.1,N
1514237175.7,286047002.3,N
1514237195.5,286047002.1,N
1514237215.3,286047001.6,N
1514237235.2,286047001.8,N
1514237255.0,286047003.2,N
1514237255.9,286047003.2,N
1514237275.8,286047001.3,N
1514237295.6,286047001.9,N
1514237315.4,286047002.2,N
1514237335.3,286047004.0,N
1514237355.1,286047002.1,N
1514237375.8,286047000.7,N
1514237395.7,286046999.8,N
1514237415.5,286047001.7,N
1514237435.4,286047002.4,N
1514237455.2,286047001.0,N
1514237475.0,286047002.4,N
1514237475.9,286047002.4,N
1514237495.8,286047000.2,N
1514237515.6,286046999.7,N
1514237535.5,286047002.1,N
1514237555.3,286047000.9,N
1514237575.1,286047001.0,N
1514237595.9,286046998.1,N
1514237615.7,286047000.8,N
1514237635.5,286047001.0,N
1514237655.4,286047000.9,N
1514237675.2,286047001.0,N
1514237695.1,286047001.1,N
1514237696.0,286047001.1,N
1514237715.8,286047000.7,N
1514237735.6,286046999.7,N
1514237755.5,286047003.2,N
1514237775.3,286047002.3,N
1514237795.2,286047000.4,N
1514237815.9,286047000.2,N
1514237835.7,286047002.6,N
1514237855.6,286046999.9,N
1514237875.4,286047001.7,N
1514237895.2,286047006.0,Y
1514237915.1,286047003.5,P
1514237916.0,286047003.5,N
1514237935.8,286047005.5,P
1514237955.7,286047005.3,Y
1514237975.5,286047000.8,P
1514237995.3,286046996.7,N
1514238015.2,286046996.5,N
1514238035.0,286046999.3,N
1514238035.9,286046999.3,N
1514238055.8,286046997.1,N
1514238075.6,286046999.6,N
1514238095.4,286046996.6,N
1514238115.3,286046998.9,N
1514238135.1,286047000.8,N
1514238155.8,286046999.6,N
1514238175.7,286046996.5,N
1514238195.5,286046997.5,N
1514238215.4,286046997.3,N
1514238235.2,286046999.2,N
1514238255.0,286046997.2,N
1514238255.9,286046997.2,N
1514238275.8,286046996.9,N
1514238295.6,286046999.6,N
1514238315.5,286046996.7,N
1514238335.3,286047000.8,N
1514238355.1,286046998.6,N
1514238375.9,286046996.2,N
1514238395.7,286046993.6,Y
1514238415.5,286046995.7,P
1514238435.4,286046993.8,P
1514238455.2,286046994.3,P
1514238475.1,286046994.7,N
1514238476.0,286046994.7,Y
1514238495.8,286047001.1,P
1514238515.6,286047000.4,N
1514238535.5,286047000.8,N
1514238555.3,286047000.3,N
1514238575.2,286046998.2,N
1514238595.9,286046996.8,N
1514238615.7,286046999.5,N
1514238635.6,286046998.2,N
1514238655.4,286046999.7,N
1514238675.2,286047000.4,N
1514238695.1,286046999.8,N
1514238696.0,286046999.8,N
1514238715.8,286047002.5,N
1514238735.7,286047000.2,N
1514238755.5,286047001.0,N
1514238775.3,286046998.4,N
1514238795.2,286047001.2,N
1514238815.0,286047000.7,N
1514238815.9,286047000.7,N
1514238835.7,286047000.4,N
1514238855.6,286047002.4,N
1514238875.4,286046999.3,N
1514238895.3,286046997.6,N
1514238945.1,286046998.2,E
1514238955.1,286046999.5,N
1514238956.0,286046999.5,P
1514238975.8,286046998.0,P
1514238995.6,286046999.2,N
1514239015.5,286046997.6,Y
1514239035.3,286046997.8,P
1514239055.1,286046997.9,P
1514239075.9,286046995.0,P
1514239095.7,286046997.7,N
1514239115.6,286046998.3,N
1514239135.4,286047001.0,N
1514239155.2,286047001.6,N
1514239175.1,286047002.8,N
1514239176.0,286047002.8,N
1514239195.8,286047001.8,N
